Weather History for Alliance, NE

Change the Weather History Date:

Sunday, May 5, 2013

  Actual Average Record
Temperature  
Mean Temperature 42 °F 51 °F  
Max Temperature 63 °F 67 °F 93 °F (2004)
Min Temperature 21 °F 35 °F 20 °F (1944)
Degree Days  
Heating Degree Days 23 14  
Month to date heating degree days 134 75  
Since 1 July heating degree days 6964 6964  
Cooling Degree Days 0 0  
Month to date cooling degree days 0 0  
Year to date cooling degree days 0 0  
Moisture  
Dew Point 22 °F    
Average Humidity 53    
Maximum Humidity 85    
Minimum Humidity 20    
Precipitation  
Precipitation 0.00 in 0.09 in 2.00 in (1971)
Month to date precipitation 0.28 0.48  
Year to date precipitation 3.10 3.34  
Sea Level Pressure  
Sea Level Pressure 30.19 in    
Wind  
Wind Speed 4 mph (SSE)    
Max Wind Speed 10 mph    
Max Gust Speed 15 mph    
Visibility 10 miles    
Events      
T = Trace of Precipitation, MM = Missing Value Source: NWS Daily Summary

Daily Weather History Graph

Daily Weather History Graph

Search for Another Location

Airport:

Trip Planner

Search our weather history database for the weather conditions in past years. The results will help you decide how hot, cold, wet, or windy it might be!

Date:

Astronomy

May. 05, 2013 Rise Set
Actual Time 5:41 AM MDT 7:54 PM MDT
Civil Twilight 5:10 AM MDT 8:25 PM MDT
Nautical Twilight 4:32 AM MDT 9:04 PM MDT
Astronomical Twilight 3:50 AM MDT 9:46 PM MDT
Moon 3:17 AM MDT (5/5) 3:52 PM MDT (5/5)
Length of Visible Light 15h 15m
Length of Day
14h 13m
Waning Crescent, 17% of the Moon is Illuminated
May 5
Waning Crescent
May 9
New
May 17
First Quarter
May 24
Full
May 31
Last Quarter

Hourly Weather History & Observations

Time (MDT) Temp. Windchill Dew Point Humidity Pressure Visibility Wind Dir Wind Speed Gust Speed Precip Events Conditions
12:53 AM 28.9 °F 25.2 °F 21.0 °F 72% 30.27 in 10.0 mi West 3.5 mph - N/A   Clear
1:53 AM 25.0 °F - 19.9 °F 81% 30.27 in 10.0 mi Calm Calm - N/A   Clear
2:53 AM 28.0 °F - 21.9 °F 78% 30.25 in 10.0 mi Calm Calm - N/A   Clear
3:53 AM 21.9 °F 13.4 °F 18.0 °F 85% 30.26 in 10.0 mi West 6.9 mph - N/A   Clear
4:53 AM 21.0 °F 14.6 °F 17.1 °F 85% 30.25 in 10.0 mi WNW 4.6 mph - N/A   Clear
6:53 AM 28.9 °F 25.2 °F 24.1 °F 82% 30.25 in 10.0 mi WNW 3.5 mph - N/A   Clear
7:53 AM 37.0 °F 32.4 °F 27.0 °F 67% 30.25 in 10.0 mi West 5.8 mph - N/A   Clear
8:53 AM 45.0 °F 43.5 °F 24.1 °F 44% 30.25 in 10.0 mi Variable 3.5 mph - N/A   Clear
9:53 AM 48.9 °F - 17.1 °F 28% 30.25 in 10.0 mi SSW 3.5 mph - N/A   Clear
10:53 AM 51.1 °F - 17.1 °F 26% 30.24 in 10.0 mi Calm Calm - N/A   Clear
11:53 AM 55.9 °F - 19.0 °F 24% 30.22 in 10.0 mi Calm Calm - N/A   Clear
12:53 PM 57.9 °F - 19.0 °F 22% 30.19 in 10.0 mi North 9.2 mph - N/A   Clear
1:53 PM 59.0 °F - 19.9 °F 22% 30.18 in 10.0 mi Variable 4.6 mph - N/A   Clear
2:53 PM 59.0 °F - 19.0 °F 21% 30.16 in 10.0 mi Variable 4.6 mph - N/A   Clear
3:53 PM 62.1 °F - 21.0 °F 21% 30.12 in 10.0 mi Variable 5.8 mph - N/A   Clear
4:53 PM 62.1 °F - 21.9 °F 21% 30.13 in 10.0 mi ENE 5.8 mph - N/A   Clear
5:53 PM 59.0 °F - 19.9 °F 22% 30.11 in 10.0 mi Calm Calm - N/A   Clear
6:53 PM 57.0 °F - 24.1 °F 28% 30.12 in 10.0 mi ESE 3.5 mph - N/A   Clear
7:53 PM 50.0 °F - 26.1 °F 39% 30.12 in 10.0 mi East 8.1 mph - N/A   Clear
8:53 PM 43.0 °F 38.8 °F 27.0 °F 53% 30.13 in 10.0 mi ESE 6.9 mph - N/A   Clear
9:53 PM 43.0 °F 38.2 °F 28.0 °F 56% 30.12 in 10.0 mi East 8.1 mph - N/A   Clear
10:53 PM 41.0 °F 39.0 °F 27.0 °F 57% 30.12 in 10.0 mi SE 3.5 mph - N/A   Clear
11:53 PM 39.9 °F 36.7 °F 27.0 °F 60% 30.11 in 10.0 mi SE 4.6 mph - N/A   Clear